Short Creek, WV

12:20 PM EST on December 03, 2016 (GMT -0500)
Wheeling-Ohio County

Weather History for KHLG - October, 2012

Change the Weather History Date:

Saturday, October 13, 2012

  Actual Average Record
Temperature  
Mean Temperature 48 °F 54 °F  
Max Temperature 67 °F 64 °F 80 °F (1997)
Min Temperature 29 °F 45 °F 29 °F (2012)
Degree Days  
Heating Degree Days 17 11  
Month to date heating degree days 164 121  
Since 1 July heating degree days 289 222  
Cooling Degree Days 0    
Month to date cooling degree days 6  
Year to date cooling degree days 980  
Moisture  
Dew Point 35 °F    
Average Humidity 58    
Maximum Humidity 78    
Minimum Humidity 37    
Precipitation  
Precipitation 0.00 in 0.08 in 1.55 in (1990)
Month to date precipitation 0.43 1.09  
Sea Level Pressure  
Sea Level Pressure 30.29 in    
Wind  
Wind Speed 8 mph (SSE)    
Max Wind Speed 20 mph    
Max Gust Speed 25 mph    
Visibility 10 miles    
Events      
T = Trace of Precipitation, MM = Missing Value Source: NWS Daily Summary

Daily Weather History Graph

Daily Weather History Graph

Search for Another Location

Airport or City:

Trip Planner

Search our weather history database for the weather conditions in past years. The results will help you decide how hot, cold, wet, or windy it might be!

Date:

Astronomy

Oct. 13, 2012 Rise Set
Actual Time 7:31 AM EDT 6:45 PM EDT
Civil Twilight 7:04 AM EDT 7:12 PM EDT
Nautical Twilight 6:32 AM EDT 7:43 PM EDT
Astronomical Twilight 6:01 AM EDT 8:15 PM EDT
Moon 5:19 AM EDT (10/13) 5:28 PM EDT (10/13)
Length of Visible Light 12h 08m
Length of Day
11h 13m
Waning Crescent, 5% of the Moon is Illuminated
Oct 13
Waning Crescent
Oct 15
New
Oct 21
First Quarter
Oct 29
Full
Nov 6
Last Quarter

Hourly Weather History & Observations

Time (EDT) Temp. Windchill Dew Point Humidity Pressure Visibility Wind Dir Wind Speed Gust Speed Precip Events Conditions
12:53 AM 39.0 °F 33.4 °F 27.0 °F 62% 30.43 in 10.0 mi East 8.1 mph - N/A   Clear
1:53 AM 37.9 °F 33.5 °F 27.0 °F 65% 30.41 in 10.0 mi East 5.8 mph - N/A   Clear
2:53 AM 37.0 °F 33.3 °F 26.1 °F 65% 30.42 in 10.0 mi ENE 4.6 mph - N/A   Clear
3:53 AM 34.0 °F 28.0 °F 26.1 °F 73% 30.38 in 10.0 mi ESE 6.9 mph - N/A   Clear
4:53 AM 35.1 °F 30.1 °F 26.1 °F 70% 30.39 in 10.0 mi East 5.8 mph - N/A   Clear
5:53 AM 35.1 °F - 26.1 °F 70% 30.40 in 10.0 mi Calm Calm - N/A   Clear
6:53 AM 32.0 °F 25.6 °F 26.1 °F 79% 30.39 in 10.0 mi East 6.9 mph - N/A   Clear
7:53 AM 32.0 °F 26.4 °F 27.0 °F 82% 30.38 in 10.0 mi East 5.8 mph - N/A   Clear
8:53 AM 37.9 °F 32.1 °F 28.9 °F 70% 30.38 in 10.0 mi East 8.1 mph - N/A   Clear
9:53 AM 45.0 °F - 32.0 °F 60% 30.38 in 10.0 mi Calm Calm - N/A   Clear
10:53 AM 50.0 °F - 36.0 °F 59% 30.37 in 10.0 mi Variable 3.5 mph - N/A   Clear
11:53 AM 55.9 °F - 39.0 °F 53% 30.34 in 10.0 mi Variable 5.8 mph 17.3 mph N/A   Clear
12:53 PM 61.0 °F - 41.0 °F 48% 30.30 in 10.0 mi SSW 8.1 mph - N/A   Clear
2:53 PM 66.0 °F - 39.9 °F 38% 30.24 in 10.0 mi SW 6.9 mph - N/A   Clear
3:53 PM 66.0 °F - 41.0 °F 40% 30.21 in 10.0 mi South 8.1 mph - N/A   Clear
4:53 PM 66.9 °F - 41.0 °F 39% 30.18 in 10.0 mi SSW 8.1 mph - N/A   Clear
5:53 PM 64.9 °F - 42.1 °F 43% 30.17 in 10.0 mi South 9.2 mph - N/A   Clear
6:53 PM 63.0 °F - 41.0 °F 45% 30.15 in 10.0 mi SSE 9.2 mph - N/A   Clear
8:53 PM 62.1 °F - 42.1 °F 48% 30.13 in 10.0 mi South 11.5 mph - N/A   Clear
9:53 PM 63.0 °F - 44.1 °F 50% 30.12 in 10.0 mi South 11.5 mph - N/A   Clear
10:53 PM 62.1 °F - 45.0 °F 53% 30.10 in 10.0 mi South 12.7 mph - N/A   Mostly Cloudy
11:53 PM 63.0 °F - 45.0 °F 52% 30.07 in 10.0 mi South 16.1 mph 23.0 mph N/A   Clear